Location: *
(48.0542°N, 1.7845°W)
Time: 17:44:53
(UTC+00:00)

Daily predictions for brighter satellites

Satellite Brightness Start Highest point End
(mag) Time Altitude Azimuth Time Altitude Azimuth Time Altitude Azimuth
Spot 2 Rocket 3.6 20:27:34 10° SSE 20:32:38 68° ENE 20:37:44 10° N
SL-24 R/B 4.2 20:29:48 10° NNE 20:34:08 78° ESE 20:38:59 10° S
Cosmos 1892 3.6 20:31:16 10° SSE 20:34:42 32° E 20:38:09 10° NNE
Cosmos 2058 3.0 20:31:44 10° S 20:35:56 89° ESE 20:40:11 10° N
MetOp-B 4.3 20:32:23 10° SSE 20:37:39 63° ENE 20:42:58 10° N
SPOT 5 4.2 20:36:34 10° ESE 20:40:48 27° ENE 20:44:51 10° N
CZ-2C R/B 3.1 20:35:51 10° SSE 20:41:16 85° ENE 20:46:24 10° NNW
SL-8 R/B 3.8 20:37:01 10° W 20:41:49 87° N 20:46:37 10° E
Cosmos 2228 Rocket 4.3 20:38:07 10° N 20:42:04 28° ENE 20:46:00 10° SE
Cosmos 921 Rocket 3.2 20:39:29 10° NNW 20:43:41 58° ENE 20:47:55 10° SSE
SL-4 R/B 3.8 20:44:06 10° S 20:47:13 17° SE 20:50:19 10° E
Resurs 01 Rocket 2.4 20:45:03 10° S 20:49:23 52° W 20:53:44 10° NNW
USA 267 3.4 20:47:30 10° SE 20:54:05 77° SW 21:00:40 10° NW
Cosmos 1151 Rocket 3.1 20:51:41 10° N 20:56:05 66° E 21:00:26 10° SSE
ATLAS CENTAUR R/B 4.1 20:54:02 10° NNW 20:56:52 15° NNE 20:59:37 10° NE
Cosmos 1461 4.4 20:54:18 10° WNW 20:57:41 28° WSW 21:01:08 10° S
Cosmos 1238 Rocket 4.1 20:52:02 10° S 20:58:38 77° E 21:05:11 10° NNE
NOSS 3-1 (C) 4.5 20:56:32 10° SSE 21:00:36 21° ESE 21:05:02 10° ENE
Timation 1 Rocket 4.5 20:55:45 10° NNW 21:01:47 79° WSW 21:07:45 10° SSE
Landsat 7 4.2 20:57:35 10° SE 21:02:09 50° ENE 21:06:46 10° N
ISS -3.3 21:02:16 10° SW 21:05:24 37° SE 21:08:31 10° ENE
Cosmos 2360 Rocket 2.6 21:00:17 10° S 21:05:30 40° ESE 21:10:44 10° NE
Lacrosse 5 3.8 21:02:17 10° WNW 21:06:45 30° N 21:11:12 10° ENE
Cosmos 1328 Rocket 3.6 21:02:22 10° N 21:06:47 84° W 21:11:08 10° S
Cosmos 1980 Rocket 4.1 21:05:26 10° WSW 21:10:31 34° NW 21:15:36 10° NNE
Cosmos 1408 3.1 21:11:39 11° SSE 21:14:58 43° E 21:18:32 10° NNE
H-2A R/B 3.9 21:10:44 10° SSW 21:15:24 29° W 21:20:02 10° NW
Cosmos 1606 3.8 21:13:26 10° N 21:16:47 29° ENE 21:19:13 15° SE
Cosmos 292 Rocket 4.5 21:13:24 10° NNW 21:18:02 42° ENE 21:21:48 15° SE
SWARM A 4.2 21:16:30 10° S 21:19:51 82° E 21:23:12 10° N
Cosmos 1500 Rocket 3.9 21:15:38 10° SSE 21:19:56 50° E 21:24:16 10° NNE
Aureole 1 Rocket 4.4 21:15:41 10° SW 21:20:38 59° WNW 21:27:15 10° NNE
MOS 1 Rocket 4.5 21:19:00 10° NE 21:22:38 24° E 21:25:05 16° SE
TIMED 4.4 21:20:32 10° SSW 21:24:53 78° ESE 21:29:16 10° NNE
CZ-2C R/B 2.5 21:19:47 10° NNE 21:25:03 74° ESE 21:30:13 10° S
Cosmos 1933 3.5 21:21:08 10° N 21:25:09 58° ENE 21:28:09 17° SSE
Nadezhda 4 Rocket 4.0 21:19:03 10° N 21:25:24 88° E 21:31:31 11° S
Terra 2.3 21:27:45 16° SE 21:31:17 49° ENE 21:35:53 10° N
Cosmos 1140 Rocket 4.3 21:27:46 15° SSE 21:31:18 32° E 21:35:52 10° NE
Cosmos 2151 4.2 21:28:36 10° SSW 21:32:40 43° WNW 21:36:48 10° N
Cosmos 2034 Rocket 4.1 21:26:32 10° S 21:32:46 85° W 21:39:08 10° N
Cosmos 407 Rocket 3.8 21:27:51 10° S 21:32:57 50° ESE 21:38:08 10° NNE
Iridium 4 Rocket 4.5 21:28:21 10° N 21:34:08 55° W 21:39:46 10° SSW
Thor Agena Rocket 3.5 21:29:56 10° NNE 21:34:58 65° ESE 21:39:59 10° S
USA 81 4.2 21:29:51 10° N 21:35:05 59° E 21:39:01 17° SSE
Cosmos 2322 Rocket 2.7 21:30:12 10° SW 21:35:52 66° WNW 21:41:34 10° NNE
Cosmos 2219 Rocket 3.3 21:33:10 17° SE 21:35:59 24° ESE 21:40:27 10° NE
USA 229 DEB 3.8 21:31:25 10° SSW 21:37:42 50° ESE 21:44:16 10° NE
USA 229 3.8 21:31:32 10° SSW 21:37:48 49° ESE 21:44:22 10° NE
Cosmos 44 Rocket 3.5 21:33:06 10° SW 21:38:15 82° NW 21:43:18 10° NE
Cosmos 1825 2.2 21:35:30 16° S 21:38:22 61° E 21:42:07 10° NNE
Cosmos 1190 Rocket 4.2 21:34:01 10° S 21:39:01 51° ESE 21:44:04 10° NNE
Meteor 2-3 Rocket 4.1 21:34:30 14° SSE 21:39:14 50° E 21:44:51 10° NNE
Cosmos 1900 4.4 21:34:19 10° SSW 21:39:26 71° ESE 21:44:35 10° NE
BREEZE-M DEB (TANK) 1.7 21:37:45 10° W 21:39:51 74° N 21:43:44 10° ENE
NOSS 5 (C) 4.4 21:36:13 10° SW 21:40:08 86° NW 21:43:16 10° NE
NOSS 3-1 (A) 4.3 21:38:17 17° SSE 21:41:19 27° ESE 21:46:23 10° ENE
BREEZE-M DEB (TANK) 1.5 21:39:00 10° WSW 21:41:32 84° SSE 21:43:46 10° ENE
Cosmos 2278 Rocket 3.7 21:37:05 10° NNW 21:41:54 27° NE 21:46:37 10° ESE
SL-16 R/B 3.0 21:36:22 10° SW 21:41:54 54° WNW 21:47:29 10° NNE
Meteor 1-26 Rocket 4.3 21:36:15 10° N 21:41:54 66° ENE 21:45:56 19° SSE
ERS-1 Rocket 3.1 21:37:30 14° S 21:41:54 72° WSW 21:46:58 10° NNW
Cosmos 2333 Rocket 3.2 21:39:40 18° SE 21:42:32 27° ESE 21:47:13 10° NE
Cosmos 1092 Rocket 4.0 21:37:21 10° N 21:43:39 81° E 21:48:39 16° SSE
Cosmos 614 Rocket 4.1 21:39:33 11° S 21:44:19 54° ESE 21:49:16 10° NNE
Gbstr 26 Del rocket 3.1 21:42:45 10° W 21:46:40 63° NNW 21:50:22 10° ENE
Cosmos 1743 Rocket 3.7 21:42:46 10° SSW 21:47:08 77° W 21:51:31 10° N
IGS 5A 3.6 21:44:07 17° S 21:47:18 69° WSW 21:51:30 10° NNW
ADEOS Rocket 4.1 21:42:04 10° N 21:47:20 40° WNW 21:52:25 10° SW
EO 1 Del DPAF 3.9 21:45:10 10° N 21:48:54 55° WNW 21:52:36 10° SSW
Cosmos 1707 Rocket 4.4 21:45:46 10° N 21:49:56 37° ENE 21:52:17 22° SE
Cosmos 1607 4.0 21:43:49 10° NW 21:50:00 70° NE 21:54:31 19° SE
Tiangong 2 3.2 21:49:38 10° WSW 21:51:17 14° SSW 21:51:17 14° SSW
Cosmos 2322 3.7 21:48:34 10° S 21:54:07 60° ESE 21:59:42 10° NE
Cosmos 1844 Rocket 2.7 21:50:22 10° NNW 21:56:05 85° WSW 21:59:54 22° SSE
Helios 1A 4.4 21:54:50 17° ESE 21:57:00 25° ENE 22:00:27 10° N
Cosmos 2263 Rocket 4.3 21:56:07 10° NW 22:00:05 20° W 22:04:01 10° SW
NOSS 2 (F) 4.5 21:57:38 10° NW 22:00:38 86° NE 22:01:42 37° SE
USA 215 4.1 21:55:16 10° NE 22:01:36 53° NNW 22:07:55 10° W
SPOT 1/Viking Rocket 4.3 22:01:07 14° S 22:05:24 48° W 22:10:26 10° NNW
Cosmos 1634 Rocket 4.0 22:02:18 16° S 22:07:29 79° E 22:13:44 10° N
Lacrosse 5 rocket 3.3 22:05:06 10° NW 22:09:14 31° NNE 22:13:18 10° ENE
Cosmos 1805 Rocket 3.5 22:09:39 24° S 22:12:12 74° E 22:16:34 10° NNE
Landsat 4 3.6 22:10:56 10° NNE 22:14:41 87° WNW 22:16:49 24° SSW
IRAS Rocket 4.3 22:11:40 24° SSE 22:15:06 77° ENE 22:20:45 10° NNW
Cosmos 2237 4.4 22:10:51 10° SW 22:16:31 73° WNW 22:22:14 10° NNE
Cosmos 2026 Rocket 4.0 22:10:47 10° N 22:16:53 84° W 22:21:00 22° S
SPOT 5 3.8 22:14:58 16° SSW 22:18:41 44° W 22:23:20 10° NNW
Cosmos 1655 Rocket 4.2 22:13:51 10° N 22:20:03 58° ENE 22:23:37 26° SSE
Cosmos 1818 3.5 22:16:10 10° NW 22:21:40 86° SW 22:24:37 28° SSE
Cosmos 1782 2.7 22:20:10 10° N 22:24:14 83° E 22:25:49 36° SSE
SL-8 R/B 3.9 22:19:37 10° W 22:24:15 51° SSW 22:26:06 32° SSE
SL-4 R/B 2.3 22:21:33 10° SW 22:26:20 63° SSE 22:31:02 10° ENE
Mayak -0.5 22:22:38 10° NNE 22:26:36 37° E 22:27:40 31° SE
Meteor 1-10 Rocket 4.4 22:21:36 10° N 22:27:10 60° ENE 22:30:09 28° SE
Cosmos 1812 4.4 22:27:37 10° NNE 22:30:40 22° ENE 22:31:48 19° E
Cosmos 1666 Rocket 3.6 22:30:46 33° SSE 22:32:38 67° E 22:37:07 10° NNE
Cosmos 1400 Rocket 4.4 22:30:04 10° NNE 22:33:33 25° ENE 22:34:59 21° E
Cosmos 1862 4.0 22:33:05 33° ESE 22:33:54 37° E 22:37:36 10° NNE
DELTA 2 R/B (1) 4.1 22:29:40 10° WSW 22:34:40 34° S 22:35:51 31° SSE
SL-16 R/B 4.2 22:34:09 11° ESE 22:34:47 11° E 22:36:20 10° ENE
COSMOS 2428 2.7 22:30:50 20° SSW 22:34:47 70° ESE 22:40:31 10° NNE
Cosmos 1633 Rocket 3.2 22:33:24 36° SSE 22:34:55 58° E 22:39:12 10° NNE
ALOS 2 4.1 22:33:16 20° ESE 22:35:10 27° ENE 22:38:52 10° N
Cosmos 1844 4.1 22:30:32 10° NW 22:35:59 53° WSW 22:38:56 26° S
ATLAS CENTAUR R/B 2.5 22:32:30 10° NNW 22:37:06 43° NE 22:39:44 21° ESE
NOSS 2-3 (C) 4.4 22:37:14 32° SE 22:37:50 34° ESE 22:42:25 10° NE
Cosmos 2180 Rocket 4.5 22:34:34 27° S 22:37:59 67° E 22:44:05 10° NNE
Helios 1B rocket 3.8 22:35:57 10° NE 22:39:19 23° E 22:39:43 23° ESE
ISS -3.2 22:38:43 10° W 22:42:01 58° NNW 22:45:19 10° ENE
ASTEX 1 3.6 22:37:31 10° N 22:42:31 71° W 22:45:27 25° SSW
Cosmos 1980 4.4 22:42:14 30° SE 22:43:55 36° ESE 22:49:05 10° NE
GP-B 4.0 22:39:57 10° NNE 22:44:03 35° E 22:45:14 30° ESE
Meteor 2-6 Rocket 4.1 22:39:03 10° N 22:44:31 87° ENE 22:47:10 32° SSE
Cosmos 1867 4.0 22:44:54 33° SSE 22:46:41 44° ESE 22:51:51 10° NE
Cosmos 1862 Rocket 3.7 22:42:49 10° N 22:47:07 60° ENE 22:48:29 39° SE
Cosmos 2360 Rocket 3.6 22:44:16 10° WSW 22:49:32 39° NW 22:54:48 10° NNE
Cosmos 676 Rocket 4.2 22:45:38 16° SSW 22:49:48 70° WNW 22:55:05 10° NNE
SL-19 R/B 3.9 22:46:59 10° NNE 22:50:16 68° WNW 22:50:52 51° SW
NOSS 3-1 (C) 3.5 22:44:52 10° SW 22:50:32 79° NW 22:57:08 10° NE
Lacrosse 5 3.1 22:45:57 10° NW 22:50:45 40° NNE 22:55:33 10° E
Cosmos 2237 Rocket 2.8 22:49:41 32° SE 22:51:17 38° ESE 22:56:28 10° NE
Cosmos 1470 Rocket 3.9 22:51:23 39° SE 22:52:26 48° E 22:56:40 10° NNE
COSMOS 2455 4.0 22:51:59 23° ESE 22:52:54 24° ESE 22:57:33 10° NE
Sich 1 3.4 22:51:30 27° SSW 22:53:41 58° WNW 22:57:56 10° N
Cosmos 2084 Rocket 4.2 22:50:58 10° NW 22:55:02 39° WSW 22:55:58 34° SSW
Cosmos 1741 Rocket 4.1 22:57:18 37° SSE 22:59:08 57° ESE 23:04:16 10° NNE
Cosmos 1633 2.5 22:59:07 56° ESE 22:59:25 59° E 23:02:57 10° NNE
MOS 1 Rocket 4.3 22:56:50 10° N 23:01:02 42° WNW 23:04:24 16° SW
Cosmos 724 4.5 22:56:12 10° NW 23:02:17 69° NE 23:05:33 28° SE
Cosmos 2266 Rocket 4.0 23:00:52 10° N 23:07:17 82° E 23:10:16 34° SSE
Terra 3.7 23:06:38 14° SW 23:09:17 22° W 23:13:00 10° NW
Cosmos 1850 Rocket 4.0 23:07:43 36° S 23:09:56 74° ESE 23:15:17 10° NNE
Meteor 1-27 Rocket 3.8 23:10:57 10° NNW 23:16:52 90° E 23:19:24 37° S
Cosmos 2219 Rocket 2.6 23:14:49 15° SW 23:19:31 61° WNW 23:25:09 10° NNE
Cosmos 2297 4.5 23:14:33 10° NNW 23:19:59 46° NE 23:23:14 23° ESE
Cosmos 540 Rocket 4.3 23:15:49 10° NNW 23:20:40 42° ENE 23:23:07 25° ESE
Spot 4 4.3 23:20:16 36° SSW 23:21:53 51° W 23:26:34 10° NNW
ARGOS Delta rocket 3.6 23:22:00 47° S 23:23:13 76° W 23:27:47 10° NNW
Cosmos 2278 Rocket 2.3 23:20:48 10° NNW 23:26:25 64° WSW 23:28:27 39° S
Cosmos 2333 Rocket 2.8 23:21:37 14° SW 23:26:28 56° WNW 23:32:05 10° NNE
Cosmos 1943 Rocket 4.3 23:23:47 10° N 23:27:51 20° NE 23:31:53 10° E
ATLAS 5 CENTAUR R/B 3.7 23:23:12 10° NNW 23:28:15 35° NE 23:33:57 10° E
NOSS 3-1 (A) 3.7 23:25:53 10° SW 23:31:33 66° NW 23:38:11 10° NE
Helios 1A 4.0 23:31:28 31° SW 23:32:26 35° W 23:36:17 10° NNW
Gbstr 26 Del rocket 3.5 23:30:07 10° WNW 23:33:46 48° N 23:37:32 10° E
SeaSat 1 2.4 23:32:07 10° NNE 23:37:04 68° ESE 23:38:30 45° S
Cosmos 841 Rocket 3.5 23:32:44 10° NNW 23:37:53 73° ENE 23:39:43 40° SE
BREEZE-M DEB (TANK) 4.3 23:25:15 10° WSW 23:40:40 76° S 23:45:07 10° E
Meteor 1-29 2.9 23:38:55 10° NNE 23:42:19 76° E 23:42:19 76° E
NOSS 2-3 (E) 3.9 23:40:33 30° SW 23:42:48 78° NW 23:48:13 10° NE
CZ-4 R/B 4.1 23:40:35 10° NNE 23:45:11 54° E 23:46:10 45° SE
Cosmos 1763 Rocket 3.6 23:40:08 10° NNW 23:45:15 63° WSW 23:46:44 44° SSW
NOSS 2-3 (D) 3.8 23:43:27 32° SW 23:45:36 78° NW 23:50:59 10° NE
Lacrosse 5 rocket 1.6 23:44:25 10° NW 23:49:02 80° NE 23:50:38 39° ESE
Cosmos 2369 Rocket 4.0 23:47:23 10° NNW 23:52:16 27° NE 23:57:05 10° ESE
